Wind_Speed
5 5 5 5 6 7 7 7 8 9 10 11 12 13 14 15 15 16 16 16 16 16 16 16 16 16 16 17 18 19 19 19 19 19 19 19 19 19 20 20 20 20 21
5 5 6 6 7 7 8 9 10 11 12 13 14 16 17 17 18 18 18 18 18 18 18 18 18 18 18 18 19 20 21 21 21 22 22 22 22 22 23 23 23 23 24
6 6 6 7 8 9 10 11 12 13 14 15 16 17 18 19 19 19 19 19 19 19 19 19 19 19 19 20 21 22 22 23 23 23 24 24 24 25 25 26 26 26 27
7 7 8 9 10 11 12 13 14 15 16 17 17 18 18 19 19 19 19 19 19 20 20 21 21 22 22 22 23 24 24 25 26 26 27 27 27 28 28 29 29 29 30
9 9 10 11 12 13 14 14 15 15 15 16 16 17 17 17 17 18 19 19 20 21 22 23 23 24 24 25 25 26 27 28 29 29 30 31 31 31 32 32 33 33 34
11 11 12 13 13 13 13 13 14 14 14 14 15 15 16 16 17 18 19 20 21 22 23 24 25 25 26 27 28 29 30 31 32 33 34 34 35 35 36 36 37 37 38
12 12 13 13 13 12 12 12 12 13 13 14 14 15 16 17 18 19 20 20 21 22 23 24 25 26 27 28 29 30 31 32 33 34 36 37 38 39 39 40 41 41 42
12 12 12 12 11 11 11 11 12 13 14 14 15 16 16 17 18 19 20 20 21 22 23 23 24 25 26 27 29 30 31 33 34 36 37 38 40 41 42 43 44 45 46
12 11 11 10 10 10 11 12 12 13 14 15 16 17 17 18 19 19 21 21 22 23 24 25 26 27 27 28 29 30 31 33 34 36 37 39 41 42 44 45 47 48 49
11 10 9 9 9 10 11 12 13 14 16 16 17 18 19 20 21 22 23 24 25 26 27 28 29 30 30 31 32 32 33 34 35 36 37 39 41 43 44 46 48 49 51
9 9 8 9 9 10 11 12 14 15 16 17 18 19 20 21 23 24 25 27 28 29 30 32 33 34 34 35 36 36 37 37 38 38 39 40 42 43 45 47 48 50 52
9 9 9 9 10 11 12 13 13 14 16 17 18 19 20 22 23 25 26 28 29 31 32 33 35 36 38 39 39 40 40 41 41 42 42 43 44 45 46 48 49 51 53
10 10 10 10 10 11 12 13 14 15 16 17 19 20 21 22 24 25 27 28 30 31 33 35 36 38 39 41 42 43 44 44 45 45 46 47 47 48 49 50 52 53 55
12 12 11 11 12 12 13 14 16 17 18 19 20 21 23 24 25 27 28 30 32 33 35 36 37 39 40 42 43 45 46 47 47 48 49 49 50 51 52 53 55 56 58
14 14 14 14 14 15 16 17 19 19 21 22 22 23 25 26 28 30 31 33 35 36 38 39 39 41 42 43 44 46 47 48 49 50 51 52 53 54 55 56 58 60 61
16 16 17 17 18 19 20 21 22 23 24 25 26 27 28 30 31 33 35 37 39 40 42 43 43 44 44 45 46 47 49 50 51 52 53 55 56 58 59 60 62 63 65
19 19 20 20 21 22 23 24 25 27 28 29 30 31 32 34 35 36 38 40 42 44 46 47 48 48 48 48 49 50 51 53 54 55 56 58 59 61 63 64 66 67 69
21 22 22 23 24 26 27 28 29 30 31 33 33 35 36 37 39 40 42 43 45 47 49 51 52 52 52 51 52 52 54 55 57 58 60 61 63 65 66 68 70 71 72
24 25 25 26 28 29 30 31 32 33 35 36 37 38 39 41 42 44 45 47 48 50 52 54 55 55 55 54 54 55 56 57 59 60 62 64 66 68 70 71 72 73 74
27 28 29 30 31 32 32 33 35 36 38 39 41 42 43 44 45 47 49 50 52 53 55 57 58 58 57 57 57 57 58 60 61 62 64 66 68 70 72 73 73 74 75
30 31 32 33 34 35 35 37 38 39 41 42 44 46 47 48 49 50 52 53 55 56 58 60 60 60 59 59 59 59 59 60 62 64 65 67 69 71 72 73 74 75 76
32 33 35 36 37 38 39 41 41 43 44 45 47 49 51 51 52 54 55 56 58 59 61 62 62 60 60 60 60 61 61 62 61 63 65 67 69 71 72 73 75 76 78
35 37 39 40 41 42 43 45 45 46 47 48 51 53 54 55 56 57 58 59 60 62 63 64 63 61 61 61 61 62 63 64 65 64 65 67 70 71 72 74 76 78 80
39 41 43 44 45 46 48 48 49 50 51 52 54 55 57 58 59 59 60 61 62 63 64 64 63 61 61 62 62 63 64 65 65 65 66 68 69 71 73 75 78 80 83
42 44 46 48 49 50 51 52 53 53 54 56 57 58 59 60 61 62 63 63 63 64 64 64 62 61 62 62 63 63 64 65 66 66 66 67 69 71 74 76 79 82 84
44 46 48 50 51 52 53 54 55 56 57 58 59 60 61 62 63 63 64 65 65 65 65 64 63 62 62 62 63 64 64 65 66 67 67 67 68 71 74 77 80 82 83
Wind_Direction
232 242 252 263 267 269 271 275 280 284 285 286 286 286 285 284 283 281 280 278 276 274 272 269 267 266 266 267 268 270 270 270 270 269 268 267 265 264 262 261 259 257 256
251 259 268 275 279 282 284 286 287 288 288 288 287 287 286 285 284 283 281 279 277 276 274 273 271 269 268 268 268 270 270 270 269 268 267 266 265 265 264 263 261 260 258
277 280 285 290 293 294 294 294 293 293 292 291 290 289 288 287 286 285 283 282 280 279 278 277 276 274 273 272 271 271 271 270 270 269 267 266 265 265 264 264 263 261 260
287 290 294 297 298 298 298 298 297 296 296 295 294 293 292 291 290 289 288 287 286 285 284 283 281 280 279 277 275 274 273 272 271 271 270 269 267 266 265 264 263 262 261
290 293 296 299 300 300 300 300 300 300 300 299 298 297 296 294 293 293 292 292 291 290 289 287 286 284 282 280 279 277 276 275 274 273 272 271 270 268 267 265 264 263 263
291 294 297 299 301 302 302 303 303 304 304 303 302 301 300 299 298 297 295 294 293 291 290 289 288 286 284 282 281 279 278 277 276 275 274 273 272 270 269 268 267 265 264
290 293 297 300 302 304 306 307 308 308 309 308 307 306 305 304 302 300 298 296 294 293 291 290 288 287 285 284 283 281 280 279 278 277 276 275 274 273 272 270 269 268 266
289 293 298 301 304 307 310 312 313 313 312 311 310 309 308 306 305 303 301 298 296 294 292 291 290 288 287 285 284 282 281 280 279 278 277 276 275 274 273 272 271 269 268
290 294 298 302 306 310 314 316 316 316 315 313 312 311 309 307 305 303 301 299 297 295 294 292 291 289 288 286 285 284 282 281 280 279 278 277 276 275 273 272 271 270 268
288 292 296 301 307 312 315 317 317 316 314 313 311 310 308 307 305 303 301 299 297 296 294 292 291 289 288 286 285 284 283 281 280 279 278 277 277 275 274 272 270 269 268
284 289 293 299 306 311 313 315 315 315 314 312 311 310 310 309 307 305 303 301 299 297 295 294 292 290 288 286 285 284 283 282 281 280 280 279 278 277 275 273 272 270 268
278 283 288 294 301 307 310 313 314 314 314 314 313 314 314 313 312 310 308 306 303 301 299 297 294 292 289 287 285 284 283 281 281 280 280 279 279 278 277 276 274 272 270
274 277 282 289 296 302 306 308 310 312 313 313 314 315 316 317 316 316 314 313 310 307 304 301 298 295 292 289 287 285 284 282 281 281 280 280 280 279 279 277 276 275 273
270 274 279 285 291 296 300 302 304 307 309 311 313 314 316 316 317 317 317 316 314 312 310 306 303 299 296 292 289 287 285 284 283 283 282 282 282 281 280 280 279 278 276
269 273 278 282 287 291 296 299 301 304 306 308 309 311 312 314 315 316 317 318 317 316 314 311 308 304 300 296 292 289 287 285 285 285 284 284 284 284 283 282 282 281 280
269 273 277 281 285 289 293 297 299 302 304 305 307 308 309 310 312 314 316 317 318 317 316 314 311 308 304 300 296 292 290 288 287 287 287 287 287 287 286 286 286 285 285
272 274 277 281 285 289 292 296 299 300 302 304 305 306 307 309 310 311 313 314 315 316 316 315 313 310 307 303 299 295 293 291 290 289 289 289 289 289 289 289 289 288 288
272 274 276 280 283 287 290 294 296 299 300 302 304 305 307 308 309 310 310 311 313 314 314 313 312 310 307 304 301 298 295 293 292 292 292 291 291 291 291 291 291 291 291
274 275 276 279 282 285 289 292 295 297 299 301 303 304 305 307 308 309 309 310 311 311 312 312 311 309 307 304 302 300 298 296 295 294 294 293 293 293 293 293 293 293 293
274 275 276 278 281 284 288 290 292 295 297 299 301 302 304 305 306 307 308 309 309 310 310 310 310 308 306 304 302 301 300 298 297 296 295 295 295 295 295 295 295 295 295
273 274 275 277 279 283 286 287 290 293 296 298 299 300 302 303 304 306 306 307 308 308 309 309 309 307 305 303 302 301 300 299 298 297 296 296 296 297 297 297 297 297 297
271 272 273 275 277 281 283 286 289 291 294 296 298 299 301 302 303 304 305 305 306 307 307 308 308 306 305 303 302 300 299 297 296 296 297 297 298 298 299 300 300 300 300
270 271 273 275 278 280 282 285 288 290 293 294 295 298 299 300 301 302 303 303 304 305 306 306 306 305 304 303 302 301 299 298 297 297 297 298 300 300 302 303 303 303 303
272 274 276 277 279 281 283 286 288 290 292 293 294 297 298 299 300 301 301 301 303 304 304 305 305 304 304 303 302 301 300 299 298 298 299 299 300 302 303 304 305 305 305
275 276 277 278 281 283 285 287 289 291 292 293 295 296 297 297 298 299 299 300 301 302 303 304 304 304 304 303 302 301 300 300 300 300 301 302 302 303 305 306 306 307 307
282 282 282 284 285 287 289 290 291 291 292 293 294 295 295 296 297 297 297 298 300 301 302 303 304 304 304 303 303 302 302 302 302 302 303 303 304 305 306 307 307 308 308
Height
5884 5884 5884 5883 5883 5882 5882 5881 5880 5879 5879 5878 5877 5877 5876 5875 5874 5874 5873 5872 5872 5871 5871 5871 5871 5870 5870 5869 5868 5868 5868 5868 5868 5869 5869 5870 5870 5871 5871 5872 5872 5873 5874
5884 5884 5883 5883 5882 5881 5880 5880 5879 5878 5877 5876 5875 5874 5873 5872 5872 5871 5870 5869 5869 5868 5868 5867 5867 5867 5867 5866 5865 5864 5864 5864 5864 5865 5865 5866 5866 5866 5867 5867 5868 5869 5870
5884 5883 5882 5882 5881 5880 5879 5878 5877 5876 5875 5874 5873 5871 5870 5869 5868 5867 5867 5866 5865 5864 5864 5863 5863 5863 5863 5862 5862 5861 5860 5860 5860 5860 5860 5861 5861 5862 5862 5862 5863 5864 5865
5883 5882 5881 5880 5879 5878 5877 5876 5875 5873 5872 5871 5870 5868 5867 5866 5865 5864 5863 5862 5861 5860 5860 5859 5858 5858 5858 5857 5857 5856 5856 5856 5855 5855 5855 5855 5856 5857 5857 5857 5858 5858 5859
5881 5880 5880 5879 5877 5876 5875 5874 5872 5871 5869 5868 5867 5865 5864 5863 5862 5860 5859 5858 5857 5856 5855 5854 5854 5853 5852 5852 5851 5851 5850 5850 5850 5850 5849 5849 5850 5850 5851 5851 5851 5852 5853
5879 5878 5877 5876 5875 5874 5872 5871 5870 5868 5867 5866 5864 5863 5861 5860 5859 5857 5856 5854 5853 5852 5850 5849 5848 5847 5847 5846 5845 5845 5844 5843 5843 5843 5842 5842 5842 5843 5843 5844 5844 5845 5846
5877 5876 5875 5874 5873 5871 5870 5868 5867 5866 5864 5863 5862 5860 5858 5857 5855 5854 5852 5851 5849 5848 5846 5845 5843 5842 5841 5840 5839 5838 5837 5836 5836 5835 5835 5834 5834 5834 5835 5835 5836 5836 5837
5875 5873 5872 5871 5870 5868 5867 5866 5864 5863 5862 5860 5859 5857 5855 5854 5852 5850 5849 5847 5845 5844 5842 5840 5839 5837 5836 5834 5833 5832 5830 5830 5829 5828 5827 5826 5826 5826 5826 5826 5826 5827 5827
5872 5870 5869 5868 5867 5866 5864 5863 5862 5860 5858 5857 5855 5853 5852 5850 5848 5847 5845 5843 5841 5839 5838 5836 5834 5832 5830 5829 5827 5825 5824 5822 5821 5820 5819 5818 5817 5816 5816 5816 5816 5816 5817
5869 5868 5866 5865 5864 5863 5861 5860 5859 5857 5855 5854 5852 5850 5848 5846 5844 5843 5841 5839 5837 5834 5832 5830 5828 5826 5824 5822 5821 5819 5817 5815 5814 5812 5811 5809 5808 5807 5806 5806 5806 5805 5805
5866 5865 5864 5863 5861 5860 5859 5857 5855 5854 5852 5850 5848 5846 5844 5842 5840 5838 5835 5833 5831 5829 5826 5824 5821 5819 5817 5815 5813 5811 5809 5807 5805 5803 5802 5800 5799 5797 5796 5795 5794 5794 5794
5863 5862 5861 5860 5858 5857 5856 5854 5852 5851 5849 5847 5844 5842 5840 5837 5835 5832 5830 5827 5825 5822 5819 5816 5814 5811 5808 5806 5804 5801 5799 5797 5795 5793 5791 5790 5788 5786 5785 5783 5782 5781 5781
5860 5859 5858 5857 5856 5854 5853 5851 5849 5847 5845 5843 5841 5838 5835 5833 5830 5827 5824 5821 5818 5815 5812 5809 5805 5802 5799 5796 5793 5791 5788 5786 5784 5781 5779 5777 5775 5773 5772 5770 5768 5767 5766
5857 5856 5855 5854 5852 5851 5849 5848 5846 5844 5841 5839 5836 5833 5830 5827 5824 5821 5818 5815 5811 5808 5804 5800 5797 5793 5789 5785 5782 5779 5776 5773 5771 5768 5766 5764 5761 5759 5757 5755 5753 5751 5749
5854 5853 5852 5850 5849 5847 5845 5843 5841 5839 5837 5834 5831 5828 5825 5821 5818 5814 5811 5807 5804 5800 5796 5792 5787 5783 5779 5775 5771 5767 5763 5760 5757 5754 5752 5749 5746 5744 5741 5738 5736 5733 5731
5851 5849 5848 5846 5844 5843 5841 5838 5836 5834 5831 5828 5825 5822 5819 5815 5811 5807 5803 5799 5795 5791 5787 5782 5778 5773 5768 5763 5759 5754 5750 5746 5743 5739 5736 5733 5730 5727 5723 5720 5717 5714 5710
5846 5845 5843 5841 5839 5837 5835 5833 5830 5828 5825 5822 5819 5815 5811 5808 5804 5799 5795 5791 5786 5781 5777 5772 5767 5762 5757 5751 5746 5741 5737 5732 5728 5724 5720 5716 5713 5709 5705 5701 5697 5693 5689
5841 5840 5838 5836 5834 5832 5829 5827 5824 5821 5818 5814 5811 5807 5804 5800 5795 5791 5786 5782 5777 5772 5766 5761 5756 5750 5745 5739 5734 5728 5723 5718 5713 5708 5703 5699 5694 5690 5685 5681 5676 5672 5667
5836 5834 5832 5830 5828 5826 5823 5820 5817 5814 5810 5807 5803 5799 5795 5791 5786 5782 5777 5772 5767 5761 5755 5750 5744 5738 5732 5727 5721 5714 5708 5703 5697 5692 5686 5681 5675 5670 5665 5660 5656 5650 5645
5829 5827 5825 5823 5821 5818 5816 5813 5810 5806 5802 5798 5794 5790 5786 5782 5777 5772 5767 5761 5756 5750 5744 5738 5732 5726 5719 5713 5707 5701 5694 5688 5681 5675 5669 5663 5657 5651 5645 5640 5634 5629 5623
5821 5819 5817 5815 5813 5810 5808 5804 5801 5798 5794 5790 5785 5780 5776 5772 5767 5761 5756 5750 5744 5738 5732 5725 5719 5712 5705 5699 5693 5687 5681 5674 5666 5659 5652 5645 5639 5632 5625 5619 5613 5607 5601
5813 5811 5809 5806 5804 5801 5798 5795 5792 5788 5785 5780 5775 5770 5765 5761 5756 5750 5744 5738 5732 5726 5719 5712 5706 5698 5692 5685 5678 5671 5665 5660 5654 5645 5636 5628 5620 5613 5606 5598 5591 5584 5577
5804 5802 5799 5797 5794 5791 5788 5785 5782 5778 5774 5770 5764 5759 5754 5749 5744 5738 5732 5726 5719 5713 5706 5699 5692 5685 5678 5671 5663 5656 5649 5643 5636 5630 5622 5611 5602 5594 5585 5577 5568 5560 5551
5795 5792 5790 5787 5784 5781 5777 5774 5771 5767 5763 5759 5753 5749 5743 5737 5731 5726 5719 5712 5706 5700 5693 5686 5678 5671 5663 5656 5649 5641 5633 5626 5619 5613 5606 5596 5586 5575 5565 5556 5546 5536 5526
5786 5783 5780 5777 5774 5770 5767 5764 5760 5756 5752 5747 5742 5736 5730 5724 5718 5712 5705 5699 5692 5686 5679 5671 5664 5657 5649 5641 5633 5625 5617 5609 5601 5595 5589 5579 5568 5557 5546 5535 5524 5513 5501
5777 5774 5771 5768 5764 5761 5757 5753 5749 5744 5739 5734 5729 5724 5717 5711 5705 5698 5691 5684 5678 5671 5664 5656 5649 5642 5634 5625 5617 5609 5601 5593 5584 5576 5570 5562 5552 5540 5526 5514 5502 5491 5479